Location: La Comballaz
(46.3780°N, 7.0817°E)
Time: 03:56:30
(UTC+00:00)

Envisat - Pass Details

Date: 15 December 2021
Orbit: 764 x 766 km, 98.2° (Epoch: 16 January)

Event Time Altitude Azimuth Distance (km) Brightness Sun altitude
Rises 03:42:21 0° 23° (NNE) 3,242 6.5 -34.4°
Reaches altitude 10° 03:44:58 10° 34° (NE) 2,311 5.8 -33.9°
Maximum altitude 03:49:21 29° 94° (E) 1,388 4.8 -33.2°
Drops below altitude 10° 03:53:43 10° 154° (SSE) 2,295 5.7 -32.4°
Sets 03:56:17 0° 165° (SSE) 3,216 6.4 -32.0°
